Moderate Warning for Thunderstorm
until 9:59 PM CEST
| Temperature (°F) | Max | Average | Min |
|---|---|---|---|
| Max Temperature | 70 | 55.61 | 36 |
| Avg Temperature | 57.13 | 45.52 | 36 |
| Min Temperature | 50 | 36.16 | 24 |
| Precipitation (in) | Max | Average | Min | Sum |
|---|---|---|---|---|
| Precipitation | 0 | 0 | 0 | 0 |
| Dew Point (°F) | Max | Average | Min |
|---|---|---|---|
| Dew Point | 44.5 | 34.5 | 20.63 |
| Wind (mph) | Max | Average | Min |
|---|---|---|---|
| Wind | 22 | 10.06 | 0 |
| Gust Wind | - | - | - |
| Sea Level Pressure (in) | Max | Average | Min |
|---|---|---|---|
| Sea Level Pressure | 29.59 | 29.27 | 28.82 |
| Date | Temp High/Low | Dew Pt High/Low | Humidity | Wind | Max Wind | Wind Gust | Pressure | Precip. | Condition |
|---|---|---|---|---|---|---|---|---|---|
| 3/1/2023 | 40 °F / 35 °F | 37 °F / 25 °F | 78 % | 7 mph | - | 29.59 in | 0 in | ||
| 3/2/2023 | 45 °F / 39 °F | 38 °F / 30 °F | 79 % | 7 mph | - | 29.48 in | 0 in | ||
| 3/3/2023 | 50 °F / 34 °F | 40 °F / 33 °F | 88 % | 4 mph | - | 29.42 in | 0 in | ||
| 3/4/2023 | 57 °F / 28 °F | 38 °F / 28 °F | 79 % | 11 mph | - | 29.37 in | 0 in | ||
| 3/5/2023 | 48 °F / 34 °F | 31 °F / 28 °F | 70 % | 7 mph | - | 29.28 in | 0 in | ||
| 3/6/2023 | 47 °F / 34 °F | 35 °F / 29 °F | 73 % | 4 mph | - | 29.1 in | 0 in | ||
| 3/7/2023 | 43 °F / 35 °F | 39 °F / 34 °F | 89 % | 4 mph | - | 29.03 in | 0 in | ||
| 3/8/2023 | 59 °F / 35 °F | 42 °F / 35 °F | 81 % | 13 mph | - | 28.98 in | 0 in | ||
| 3/9/2023 | 68 °F / 47 °F | 46 °F / 40 °F | 60 % | 16 mph | - | 28.92 in | 0 in | ||
| 3/10/2023 | 63 °F / 36 °F | 46 °F / 34 °F | 74 % | 11 mph | - | 28.82 in | 0 in | ||
| 3/11/2023 | 54 °F / 37 °F | 44 °F / 20 °F | 60 % | 13 mph | - | 28.95 in | 0 in | ||
| 3/12/2023 | 48 °F / 27 °F | 28 °F / 24 °F | 67 % | 4 mph | - | 29.36 in | 0 in | ||
| 3/13/2023 | 63 °F / 30 °F | 39 °F / 26 °F | 62 % | 16 mph | - | 29.29 in | 0 in | ||
| 3/14/2023 | 62 °F / 50 °F | 43 °F / 39 °F | 59 % | 18 mph | - | 28.98 in | 0 in | ||
| 3/15/2023 | 49 °F / 38 °F | 42 °F / 20 °F | 53 % | 18 mph | - | 29.22 in | 0 in | ||
| 3/16/2023 | 49 °F / 29 °F | 24 °F / 16 °F | 53 % | 13 mph | - | 29.53 in | 0 in | ||
| 3/17/2023 | 54 °F / 24 °F | 26 °F / 20 °F | 55 % | 7 mph | - | 29.54 in | 0 in | ||
| 3/18/2023 | 61 °F / 36 °F | 32 °F / 24 °F | 52 % | 7 mph | - | 29.41 in | 0 in | ||
| 3/19/2023 | 66 °F / 34 °F | 38 °F / 27 °F | 53 % | 13 mph | - | 29.37 in | 0 in | ||
| 3/20/2023 | 62 °F / 42 °F | 41 °F / 33 °F | 67 % | 4 mph | - | 29.42 in | 0 in | ||
| 3/21/2023 | 65 °F / 43 °F | 43 °F / 36 °F | 64 % | 4 mph | - | 29.38 in | 0 in | ||
| 3/22/2023 | 69 °F / 40 °F | 44 °F / 36 °F | 65 % | 4 mph | - | 29.33 in | 0 in | ||
| 3/23/2023 | 70 °F / 38 °F | 47 °F / 35 °F | 66 % | 7 mph | - | 29.27 in | 0 in | ||
| 3/24/2023 | 70 °F / 41 °F | 45 °F / 37 °F | 63 % | 16 mph | - | 29.18 in | 0 in | ||
| 3/25/2023 | 54 °F / 42 °F | 49 °F / 39 °F | 83 % | 9 mph | - | 29.23 in | 0 in | ||
| 3/26/2023 | 36 °F / 36 °F | 35 °F / 35 °F | 95 % | 0 mph | - | 29.27 in | 0 in | ||
| 3/27/2023 | 53 °F / 39 °F | 42 °F / 24 °F | 67 % | 22 mph | - | 29.05 in | 0 in | ||
| 3/28/2023 | 48 °F / 32 °F | 28 °F / 21 °F | 59 % | 18 mph | - | 29.52 in | 0 in | ||
| 3/29/2023 | 48 °F / 27 °F | 30 °F / 24 °F | 68 % | 4 mph | - | 29.57 in | 0 in | ||
| 3/30/2023 | 62 °F / 35 °F | 46 °F / 31 °F | 73 % | 13 mph | - | 29.4 in | 0 in | ||
| 3/31/2023 | 61 °F / 44 °F | 46 °F / 42 °F | 76 % | 18 mph | - | 29.15 in | 0 in |